Temp
61 61 61 61 61 61 61 61 61 61 62 63 63 63 63 63 62 75 79 84 88 79 76 95 97 97 99 93 96 95 78 73 78 73 77 95 93 100 101 97 99 100 97 100 104
60 61 61 61 61 61 61 61 61 62 62 62 63 63 63 63 76 80 83 78 79 79 91 91 91 95 91 91 91 84 73 76 85 86 86 91 92 95 94 95 95 96 100 102 103
60 60 61 60 60 60 61 61 61 62 62 63 63 63 63 66 75 84 77 78 78 79 91 92 97 95 88 92 88 85 77 83 86 88 91 89 88 94 91 89 95 93 97 100 100
60 60 60 60 60 60 61 61 62 62 63 63 63 63 63 76 70 87 78 78 78 87 90 92 93 88 85 84 92 82 87 87 87 90 89 86 91 88 90 91 99 99 99 98 97
59 59 59 59 60 60 60 61 61 62 62 63 63 64 70 75 82 89 79 80 89 90 88 90 88 88 83 87 90 86 86 89 89 89 89 91 87 86 87 95 98 99 97 96 96
59 59 59 59 59 60 60 60 61 61 62 62 64 63 73 73 97 96 93 94 92 92 92 94 91 93 89 88 87 91 89 87 89 86 88 87 86 88 89 95 94 95 94 95 96
58 58 58 59 59 60 60 60 60 61 62 63 64 74 78 84 99 99 98 95 99 98 93 97 98 92 91 85 93 90 82 84 86 87 84 87 81 82 90 91 90 90 91 93 96
58 58 58 59 59 60 60 60 60 61 63 64 65 77 80 98 100 97 99 96 98 99 97 98 97 91 89 92 88 82 82 73 84 87 87 84 70 86 94 90 85 88 90 92 91
58 58 58 59 59 60 60 59 61 62 63 66 73 79 80 88 91 97 99 93 95 96 95 96 92 86 88 80 76 79 70 75 79 90 85 81 75 87 91 88 86 86 88 90 91
58 57 57 58 59 59 59 59 64 64 71 83 86 80 89 86 92 94 97 94 90 90 88 86 84 79 81 77 65 71 74 77 77 83 83 79 78 85 90 88 85 86 88 90 91
58 57 57 58 59 58 66 82 79 77 82 83 85 84 87 94 96 92 95 91 90 85 76 83 75 72 77 81 81 79 76 75 81 83 79 76 76 81 86 88 87 87 85 88 89
57 57 57 58 58 59 71 82 87 90 78 89 88 89 92 94 85 89 94 83 81 75 81 79 72 81 83 81 79 77 74 74 81 84 79 75 74 80 84 85 87 86 86 86 87
56 56 57 57 58 66 84 88 98 97 77 83 89 88 88 92 83 84 91 86 81 78 78 74 78 82 79 78 74 75 73 74 72 77 79 75 71 75 85 86 86 85 86 87 85
56 56 57 55 68 91 89 95 100 95 70 75 81 86 89 90 80 90 92 86 81 76 78 77 82 78 76 75 78 69 77 75 72 69 62 76 59 73 79 78 80 82 83 84 84
56 56 56 53 80 86 91 98 98 89 53 79 82 95 90 84 84 84 92 87 77 77 77 73 75 75 73 75 77 71 77 73 72 68 67 68 65 72 77 74 76 80 82 84 84
55 56 55 78 81 93 98 97 89 66 54 73 82 80 81 82 82 85 84 88 85 78 78 76 82 78 76 78 77 77 73 73 72 69 58 67 67 69 71 75 77 80 82 83 84
55 55 57 86 86 98 97 87 65 58 77 72 75 79 79 77 78 78 77 74 70 64 66 73 74 78 78 73 78 75 68 57 57 56 57 70 65 69 75 79 79 79 81 82 83
54 52 70 90 97 96 89 75 56 70 72 79 77 77 72 76 76 75 73 70 74 71 67 64 60 72 77 72 68 70 67 57 47 51 57 69 60 69 78 80 80 81 80 77 78
52 83 85 92 95 92 79 63 64 72 76 74 76 71 71 74 73 72 71 69 71 72 61 61 63 75 75 76 75 68 64 70 59 62 56 63 70 74 77 75 76 76 76 76 77
71 84 88 96 93 85 73 61 72 77 77 76 67 72 66 71 68 70 70 71 70 73 75 68 57 73 73 75 75 71 74 58 61 46 45 57 59 62 68 70 73 73 74 76 77
74 79 89 97 91 78 66 71 75 79 78 71 70 68 69 68 68 68 68 70 72 72 73 70 63 64 70 68 66 67 64 65 64 59 47 45 54 72 68 71 71 73 75 75 74
77 73 92 94 74 76 72 75 63 76 78 75 74 71 68 68 66 67 65 67 72 72 64 68 61 55 62 73 74 69 64 63 50 49 54 51 50 73 73 73 72 73 73 73 73
71 80 92 88 67 71 75 74 76 73 73 73 70 72 72 67 58 67 68 71 71 69 61 63 59 50 55 65 69 63 66 66 63 58 49 44 49 71 72 72 72 68 70 70 70
72 72 81 82 81 72 70 71 70 75 73 74 72 72 69 67 70 64 66 69 70 69 62 63 57 54 48 56 62 58 63 65 60 46 52 53 56 63 67 64 66 66 66 66 65
76 71 72 68 72 72 72 71 69 67 73 73 69 69 67 55 63 64 68 68 70 61 65 62 52 58 60 63 63 61 61 62 59 59 50 56 57 62 61 61 61 62 61 61 61
69 67 72 74 72 71 62 68 67 69 68 67 64 69 68 62 63 60 64 64 63 67 64 64 52 56 53 60 62 59 62 61 61 61 59 58 56 64 62 60 57 57 56 56 56
73 75 70 63 71 69 67 67 67 67 70 71 67 66 64 63 67 68 68 67 65 61 59 58 54 50 45 57 55 49 57 58 59 60 57 49 55 57 53 52 51 52 54 53 52
MSLP
1016.23 1015.92 1015.65 1015.41 1015.17 1014.94 1014.68 1014.48 1014.33 1014.16 1013.95 1013.71 1013.55 1013.42 1013.33 1013.19 1012.62 1012.12 1010.21 1008.87 1008.14 1008.66 1008.55 1007.48 1006.53 1006.04 1005.52 1005.20 1004.88 1004.76 1004.65 1003.55 1002.03 1003.14 1001.91 1000.60 999.70 999.33 999.95 999.86 1000.10 1000.66 1001.43 1002.06 1002.26
1016.28 1015.88 1015.58 1015.35 1015.09 1014.87 1014.65 1014.42 1014.20 1013.97 1013.79 1013.56 1013.43 1013.37 1013.36 1013.24 1012.00 1010.18 1008.54 1008.46 1008.47 1008.62 1008.21 1007.02 1005.88 1005.49 1005.00 1004.70 1004.62 1004.59 1005.04 1003.77 1003.09 1003.68 1002.32 1001.98 1001.03 1000.19 1000.33 1000.08 1000.26 1000.85 1001.60 1002.12 1002.25
1016.32 1015.90 1015.58 1015.29 1015.00 1014.72 1014.48 1014.27 1014.07 1013.83 1013.63 1013.46 1013.39 1013.42 1013.37 1013.04 1011.15 1008.09 1008.55 1008.44 1008.42 1008.60 1008.08 1007.11 1005.50 1004.63 1004.50 1004.18 1004.17 1004.47 1004.56 1003.15 1003.50 1003.67 1003.00 1002.59 1002.26 1001.53 1001.01 1000.78 1000.63 1001.10 1001.38 1001.99 1002.44
1016.28 1015.91 1015.53 1015.19 1014.86 1014.55 1014.29 1014.06 1013.85 1013.63 1013.44 1013.34 1013.32 1013.38 1013.31 1012.44 1009.39 1008.20 1008.53 1008.47 1008.44 1008.36 1007.90 1006.50 1005.28 1004.43 1003.93 1003.57 1003.10 1003.52 1003.95 1004.24 1003.54 1003.23 1002.97 1002.96 1002.81 1002.29 1002.04 1001.73 1001.37 1001.74 1002.24 1002.66 1002.83
1016.17 1015.79 1015.44 1015.10 1014.77 1014.47 1014.19 1013.90 1013.64 1013.42 1013.27 1013.24 1013.28 1013.31 1013.06 1010.80 1007.93 1008.04 1008.17 1008.20 1008.12 1007.98 1007.28 1005.91 1004.94 1004.31 1003.64 1003.10 1002.68 1002.42 1003.08 1003.57 1003.23 1002.95 1003.07 1003.01 1002.99 1002.75 1002.55 1002.39 1002.40 1002.44 1002.66 1002.99 1003.20
1016.05 1015.66 1015.30 1014.96 1014.65 1014.33 1014.01 1013.73 1013.49 1013.29 1013.16 1013.18 1013.27 1013.37 1012.21 1008.90 1006.58 1007.32 1007.51 1007.39 1007.40 1006.96 1006.06 1005.26 1004.37 1003.87 1003.32 1002.73 1002.25 1001.89 1002.40 1002.83 1002.73 1003.29 1003.65 1003.20 1002.93 1003.07 1002.58 1002.92 1002.79 1002.67 1002.94 1003.26 1003.28
1015.96 1015.57 1015.20 1014.85 1014.51 1014.17 1013.84 1013.57 1013.33 1013.13 1013.01 1013.12 1013.18 1012.86 1010.33 1007.03 1006.17 1006.58 1006.68 1006.28 1005.73 1005.40 1004.86 1004.53 1004.13 1003.70 1003.56 1002.99 1002.46 1002.24 1002.56 1002.86 1002.59 1002.88 1003.20 1003.65 1002.80 1002.41 1002.34 1002.76 1002.57 1002.96 1003.27 1003.56 1003.29
1015.86 1015.45 1015.06 1014.70 1014.33 1013.96 1013.63 1013.36 1013.10 1012.90 1012.82 1012.92 1013.06 1012.04 1008.22 1006.53 1006.39 1006.28 1006.09 1005.87 1005.99 1005.41 1005.07 1004.65 1004.93 1004.56 1003.85 1003.37 1002.99 1002.98 1002.97 1002.43 1001.78 1001.73 1002.47 1003.33 1003.12 1002.37 1001.07 1002.11 1002.93 1003.58 1003.42 1003.37 1003.32
1015.75 1015.29 1014.89 1014.51 1014.15 1013.78 1013.47 1013.16 1012.82 1012.66 1012.61 1012.68 1012.36 1010.62 1007.03 1006.93 1006.32 1005.86 1005.81 1005.45 1005.40 1005.50 1005.59 1005.61 1005.67 1004.85 1003.97 1003.69 1003.12 1002.68 1002.00 1001.36 1000.68 999.82 1001.55 1002.68 1002.70 1001.99 1002.37 1002.64 1002.95 1003.13 1003.20 1003.37 1003.29
1015.70 1015.18 1014.73 1014.35 1013.98 1013.62 1013.31 1013.03 1012.54 1012.47 1011.91 1011.32 1010.25 1009.04 1006.32 1005.79 1005.98 1006.20 1006.01 1006.14 1005.72 1005.41 1005.40 1005.55 1005.17 1004.51 1003.81 1003.09 1002.29 1001.49 1000.74 1000.55 999.81 1000.40 1001.68 1002.26 1002.00 1002.07 1001.75 1001.96 1002.59 1002.92 1003.16 1003.20 1003.43
1015.74 1015.12 1014.59 1014.15 1013.80 1013.59 1012.86 1012.42 1012.34 1011.31 1010.08 1008.11 1007.04 1006.27 1005.83 1005.89 1006.16 1005.74 1005.80 1005.69 1005.58 1005.33 1004.87 1004.44 1004.24 1003.33 1002.60 1002.02 1001.86 1001.54 1001.26 1000.66 1000.31 1001.29 1001.96 1002.42 1002.62 1002.28 1001.78 1001.53 1001.92 1002.36 1003.19 1003.28 1003.81
1015.86 1015.20 1014.55 1014.01 1013.60 1013.45 1013.26 1010.97 1009.02 1008.48 1007.61 1006.88 1006.64 1005.99 1005.84 1005.53 1005.03 1005.38 1005.83 1005.36 1005.09 1004.63 1004.22 1003.65 1003.12 1002.63 1002.35 1002.45 1002.29 1002.25 1002.02 1001.51 1001.17 1001.15 1002.09 1002.80 1002.52 1002.05 1001.55 1001.55 1001.91 1002.40 1003.23 1003.78 1004.36
1015.83 1015.16 1014.54 1013.97 1013.46 1013.06 1011.15 1009.37 1008.45 1007.83 1007.39 1006.19 1005.75 1005.30 1005.44 1005.11 1005.06 1005.19 1005.10 1004.67 1004.16 1003.60 1003.42 1002.96 1002.72 1003.10 1002.97 1002.79 1003.00 1002.79 1002.56 1002.15 1002.36 1002.51 1002.86 1002.66 1001.94 1001.17 1000.12 1001.27 1002.24 1003.28 1003.91 1004.36 1005.02
1015.82 1015.07 1014.45 1013.87 1013.36 1010.33 1009.03 1008.74 1007.99 1008.23 1006.99 1005.80 1005.42 1004.99 1005.22 1004.86 1005.08 1005.47 1005.21 1004.97 1004.14 1003.60 1003.48 1003.25 1003.39 1003.53 1003.42 1003.24 1003.01 1003.16 1003.49 1003.50 1003.66 1003.75 1003.19 1002.66 1002.01 1001.16 1000.83 1001.77 1002.72 1003.58 1004.40 1004.78 1005.62
1015.83 1015.04 1014.31 1014.28 1012.52 1009.68 1008.86 1008.44 1008.33 1008.41 1006.14 1004.96 1004.62 1004.90 1004.88 1004.74 1005.00 1005.25 1005.35 1004.87 1004.25 1004.07 1004.56 1003.77 1003.76 1003.88 1003.81 1003.59 1004.06 1004.02 1004.49 1004.72 1004.50 1004.21 1003.86 1003.09 1002.08 1000.69 1000.68 1001.44 1002.44 1003.49 1004.27 1004.97 1005.92
1015.61 1014.95 1014.39 1012.09 1011.92 1009.35 1008.60 1008.44 1008.85 1008.06 1005.48 1004.75 1004.56 1004.48 1004.55 1004.73 1004.90 1005.07 1005.11 1005.26 1005.26 1005.01 1004.79 1004.53 1005.07 1004.91 1004.75 1004.78 1005.00 1005.29 1005.14 1004.57 1004.13 1003.95 1003.37 1002.24 1001.58 1000.59 1001.12 1001.84 1002.77 1003.67 1004.34 1005.17 1005.90
1015.23 1014.58 1014.34 1011.63 1009.65 1008.82 1008.54 1008.50 1008.08 1006.65 1005.33 1004.61 1004.38 1004.64 1004.17 1004.46 1004.85 1005.30 1005.11 1005.40 1005.53 1005.51 1004.89 1004.76 1004.94 1005.49 1005.78 1005.12 1004.93 1005.14 1005.03 1004.38 1003.33 1003.70 1002.67 1002.47 1002.54 1001.72 1001.98 1002.54 1003.42 1004.03 1004.66 1005.35 1006.37
1014.67 1014.17 1011.94 1010.69 1009.30 1009.02 1008.79 1008.29 1007.28 1005.49 1004.87 1005.22 1005.08 1004.93 1004.78 1005.06 1005.08 1005.65 1005.69 1005.76 1006.69 1006.97 1006.16 1005.10 1005.23 1005.78 1006.19 1006.17 1005.99 1005.77 1006.02 1005.73 1005.26 1004.62 1003.88 1003.42 1002.73 1001.92 1002.65 1003.82 1004.77 1005.33 1006.01 1007.04 1007.72
1013.93 1012.21 1010.93 1009.55 1009.48 1009.54 1008.91 1007.61 1006.52 1005.87 1005.72 1005.70 1005.19 1005.13 1004.89 1005.53 1006.26 1006.21 1006.25 1006.88 1007.76 1008.11 1007.98 1006.93 1006.21 1006.57 1006.89 1006.95 1006.84 1006.36 1006.19 1006.91 1006.88 1006.63 1005.87 1004.58 1003.70 1003.64 1003.96 1005.16 1006.10 1006.68 1007.22 1007.86 1008.57
1014.14 1011.16 1009.05 1008.79 1009.40 1009.41 1008.74 1007.36 1006.48 1006.80 1006.92 1006.54 1005.91 1005.82 1005.46 1005.71 1006.54 1006.44 1006.59 1008.18 1008.43 1009.15 1009.12 1008.44 1008.02 1006.94 1007.24 1007.57 1007.15 1007.17 1007.35 1007.57 1007.35 1007.40 1006.97 1006.05 1005.43 1004.84 1005.41 1005.94 1006.58 1007.49 1007.94 1008.19 1008.78
1013.75 1010.24 1008.84 1008.61 1009.11 1008.90 1007.81 1006.84 1006.69 1007.55 1007.70 1007.50 1006.95 1006.96 1006.97 1007.11 1007.52 1007.29 1007.51 1008.99 1009.62 1009.75 1010.02 1009.64 1009.57 1008.27 1008.08 1007.08 1006.89 1007.34 1007.63 1007.98 1008.18 1008.70 1008.57 1008.08 1007.00 1005.87 1006.63 1006.77 1007.36 1007.83 1008.22 1008.74 1009.54
1013.12 1009.58 1008.49 1008.55 1008.66 1007.75 1007.06 1006.98 1007.74 1007.80 1008.13 1007.92 1008.23 1008.14 1008.22 1008.43 1008.41 1008.28 1008.61 1009.61 1010.99 1011.19 1010.96 1011.14 1011.15 1010.00 1008.77 1007.84 1008.12 1008.72 1008.91 1009.16 1009.63 1010.16 1010.10 1009.62 1008.43 1007.91 1007.54 1007.91 1008.14 1008.64 1009.03 1009.74 1010.41
1013.72 1009.55 1008.18 1008.44 1007.91 1007.19 1007.16 1007.64 1008.13 1008.39 1008.50 1008.57 1008.63 1009.11 1009.28 1009.24 1009.64 1009.41 1009.64 1011.02 1011.77 1012.04 1012.80 1012.98 1011.89 1011.11 1009.73 1008.64 1008.94 1009.28 1009.19 1009.65 1010.27 1010.85 1011.04 1010.73 1009.55 1009.24 1008.63 1008.74 1009.29 1009.96 1010.57 1011.11 1011.48
1014.38 1009.88 1008.36 1008.37 1008.30 1008.38 1007.76 1007.83 1008.49 1009.46 1009.25 1009.59 1009.49 1009.88 1009.86 1009.82 1009.86 1010.23 1010.14 1011.15 1012.21 1012.77 1013.76 1014.09 1013.51 1012.74 1011.65 1010.41 1009.94 1009.72 1009.75 1010.03 1010.46 1010.89 1010.91 1010.73 1009.79 1009.92 1009.82 1010.36 1010.92 1011.52 1012.18 1012.80 1013.30
1013.71 1011.55 1011.20 1009.51 1009.12 1009.14 1009.22 1009.17 1008.78 1009.24 1009.98 1010.16 1010.01 1010.34 1010.51 1011.23 1010.84 1010.54 1010.42 1011.21 1011.86 1013.29 1013.69 1014.14 1013.89 1013.30 1012.39 1011.69 1011.01 1010.52 1010.23 1010.24 1010.46 1010.78 1010.95 1010.92 1010.68 1010.92 1011.78 1012.43 1013.21 1013.88 1014.35 1014.60 1014.72
1014.91 1013.78 1012.50 1010.75 1010.73 1010.13 1010.51 1009.85 1009.86 1010.09 1010.84 1010.37 1011.08 1011.03 1011.55 1011.82 1011.84 1011.78 1011.85 1012.12 1012.39 1012.89 1013.48 1013.98 1014.36 1014.17 1013.47 1012.66 1011.56 1010.72 1010.59 1010.75 1010.91 1011.16 1011.36 1011.67 1012.08 1012.72 1013.75 1014.52 1015.33 1015.75 1016.06 1016.00 1016.14
1016.72 1015.11 1014.33 1012.06 1010.81 1010.48 1010.68 1010.81 1011.08 1011.80 1011.66 1011.80 1012.22 1012.39 1012.42 1013.07 1013.19 1013.08 1013.37 1013.49 1013.60 1013.80 1013.98 1014.55 1015.01 1015.19 1014.43 1013.70 1013.04 1012.10 1011.55 1011.73 1012.11 1012.74 1013.27 1013.81 1014.43 1015.24 1016.01 1016.93 1017.50 1017.63 1017.61 1017.53 1017.62
Wind_Speed
15 14 13 12 11 10 10 10 10 10 10 10 9 9 10 10 14 8 12 1 9 3 6 12 13 13 13 11 11 9 13 11 22 25 19 9 5 9 5 6 9 10 14 10 8
15 14 13 12 11 10 10 10 10 10 10 11 10 9 9 9 12 16 6 6 6 3 8 14 14 14 13 13 11 5 11 21 17 16 17 14 16 12 6 6 7 11 10 6 5
15 14 13 12 11 10 10 10 10 10 10 10 9 8 7 11 9 7 4 5 3 4 12 18 18 17 16 16 14 13 14 22 21 24 17 12 16 20 13 6 7 11 7 10 2
15 14 13 12 11 11 10 10 9 9 9 9 7 6 7 9 4 5 7 4 1 5 13 17 14 15 15 18 21 16 16 15 20 18 23 13 18 12 13 15 16 5 7 7 2
16 14 13 12 11 10 10 10 9 9 9 8 6 4 6 8 1 9 6 4 6 10 14 16 17 16 18 19 19 18 12 14 14 19 19 14 18 16 16 13 16 8 5 5 9
15 14 13 12 11 11 10 10 9 10 9 7 4 2 6 12 11 9 9 11 13 15 16 18 15 15 17 20 18 15 11 18 17 8 20 17 17 16 16 16 13 12 6 8 15
15 15 13 12 11 11 11 10 10 10 10 7 5 6 11 7 2 9 8 13 10 14 15 15 11 11 11 14 12 11 13 13 14 16 16 16 19 18 19 15 3 2 7 10 11
16 14 13 12 12 12 11 11 11 11 10 7 5 8 8 3 8 5 10 6 5 7 10 7 6 11 15 14 6 9 14 17 18 24 16 8 13 19 10 15 5 7 10 13 7
16 14 14 13 13 12 11 12 11 11 9 5 7 9 6 3 10 2 7 8 7 7 4 4 9 14 14 12 14 14 16 20 23 13 13 15 13 9 6 5 5 5 7 9 6
17 15 14 13 13 12 11 7 4 6 9 10 12 12 8 6 5 3 1 8 7 8 9 10 9 13 14 13 14 19 17 17 14 14 7 9 13 13 10 12 10 7 9 8 6
19 17 15 13 12 10 10 6 7 7 11 12 2 3 3 7 7 7 2 7 8 8 11 15 12 14 19 21 21 9 14 15 8 11 4 5 11 15 13 9 8 4 6 6 4
21 18 16 15 13 8 5 8 8 10 6 3 1 2 6 2 5 7 5 8 7 13 15 13 14 16 7 6 8 9 12 14 12 3 3 6 15 17 15 13 9 2 4 3 3
21 19 17 14 13 5 12 7 9 8 7 7 4 5 6 9 5 5 8 5 11 9 9 14 8 8 4 5 6 10 13 12 10 13 10 16 19 21 15 12 7 3 4 5 7
23 20 17 17 4 12 7 4 8 6 8 9 9 5 7 3 4 3 4 8 5 11 3 11 11 6 3 7 8 10 11 10 7 10 11 16 12 16 11 10 9 8 4 6 10
23 21 18 5 12 11 6 7 9 4 6 9 9 5 3 5 2 7 1 10 8 8 6 6 5 4 6 6 8 10 11 10 13 13 14 16 11 11 16 13 15 11 8 8 7
24 21 18 5 7 13 6 5 5 7 3 6 4 8 11 4 2 2 2 3 1 8 4 5 5 4 11 8 4 8 11 14 15 13 12 17 11 4 8 10 12 13 10 7 4
25 21 11 9 8 8 7 6 7 9 4 6 5 5 5 6 6 3 3 5 9 8 6 5 7 4 4 10 10 6 9 8 6 9 9 10 2 7 13 11 7 6 7 11 6
27 19 9 10 7 5 6 8 11 7 2 6 4 2 4 3 4 1 5 8 9 11 10 9 6 4 4 7 10 9 5 6 7 9 13 15 7 3 17 15 12 9 15 17 13
27 6 9 10 4 4 8 9 5 10 9 7 2 9 9 7 5 1 2 8 8 9 9 9 5 5 4 5 8 7 4 11 8 12 12 10 9 16 14 16 13 10 11 9 7
7 10 10 5 1 5 7 13 4 5 5 3 11 4 12 8 2 4 5 4 4 5 8 6 7 3 5 5 10 7 9 6 4 7 11 10 14 8 11 4 5 5 3 5 5
5 7 6 3 4 6 9 6 7 8 8 5 7 5 4 7 3 9 4 9 3 7 8 7 4 7 4 5 6 2 6 10 8 7 8 11 8 4 16 12 10 12 14 12 14
7 6 6 4 7 9 7 5 3 5 1 1 4 5 4 5 8 3 3 9 6 8 8 7 5 8 14 16 8 5 10 9 5 8 9 10 12 17 10 16 17 15 15 16 15
7 9 6 4 7 8 8 4 3 1 2 3 1 0 4 6 2 7 2 9 7 7 9 11 3 6 7 8 8 5 4 5 8 8 10 12 11 18 19 19 15 16 16 14 15
7 5 4 4 3 8 2 6 8 1 1 5 6 1 5 7 6 4 4 6 4 4 6 3 4 8 8 14 17 12 14 14 12 4 13 14 21 19 16 16 17 17 19 19 18
5 4 4 7 8 9 4 6 4 4 1 2 3 4 5 4 9 12 1 1 7 10 3 2 6 11 14 16 17 17 18 16 15 14 15 16 19 16 18 19 19 19 20 21 22
6 6 8 3 5 7 3 2 5 7 1 4 2 8 3 5 3 8 9 8 5 8 1 2 6 11 15 16 16 14 14 16 17 13 14 16 17 19 19 21 21 21 23 23 22
8 7 7 4 4 6 7 8 6 4 4 4 6 7 7 10 9 8 7 8 9 8 9 8 7 6 6 14 16 11 7 9 12 13 15 14 18 20 20 20 20 21 22 21 21
Wind_Direction
343 340 338 334 329 322 317 316 311 307 301 296 292 290 298 305 292 235 242 233 196 16 324 263 223 246 246 253 264 304 283 276 274 35 304 353 271 104 59 312 45 39 62 92 137
342 338 334 331 326 320 314 308 303 301 296 296 290 288 300 310 279 263 167 114 99 56 251 233 229 224 234 233 236 223 269 265 306 320 278 335 340 345 3 305 171 165 139 143 175
340 337 331 327 323 320 315 309 302 299 295 292 288 295 307 301 282 218 151 140 132 254 259 274 249 228 228 233 189 227 227 274 270 296 305 315 317 318 316 300 338 4 132 142 27
340 336 332 328 324 320 313 307 302 298 294 294 300 313 317 264 320 96 161 149 142 285 268 261 253 247 236 229 236 199 235 226 270 282 291 304 292 314 306 308 321 57 34 3 344
341 337 333 328 323 316 310 305 300 296 292 292 304 313 279 236 158 138 154 174 243 228 242 240 233 235 244 243 247 216 212 255 239 268 286 288 288 275 296 293 303 324 324 308 288
342 339 334 329 322 315 309 301 294 289 282 279 279 273 249 269 100 137 205 189 231 213 232 239 241 243 260 253 255 259 211 228 242 235 268 274 271 277 268 280 260 285 298 291 278
344 340 335 329 323 315 307 295 285 278 277 271 251 259 268 345 119 160 217 226 237 219 237 224 265 271 251 270 282 279 278 270 254 235 228 257 271 266 268 263 329 343 313 292 275
347 340 336 329 323 316 305 293 281 273 270 258 242 258 286 14 324 210 215 210 235 288 313 16 312 288 274 278 266 275 252 256 252 231 214 179 257 267 317 210 147 242 248 251 252
346 341 336 331 323 316 309 301 274 269 259 245 240 221 234 129 213 180 300 284 199 219 234 324 262 256 249 240 259 237 253 251 243 239 167 188 244 330 135 171 232 267 264 264 235
347 341 334 329 323 319 311 286 310 271 223 240 258 269 228 86 68 328 173 285 245 239 229 223 234 238 231 234 240 248 246 232 254 149 157 267 279 265 214 187 204 226 266 270 284
346 341 335 328 324 329 313 232 220 208 235 267 39 260 125 98 190 208 157 217 245 248 243 208 222 227 229 217 235 291 303 305 7 117 169 267 272 278 283 276 259 214 254 272 18
344 340 334 328 325 321 275 256 24 312 292 192 264 312 339 263 190 109 226 236 185 238 207 237 226 251 16 1 344 307 278 278 272 298 48 281 275 272 258 259 261 1 337 312 88
341 337 332 327 321 269 242 330 304 327 276 175 218 181 189 243 29 51 258 271 244 252 213 256 71 18 315 271 271 262 267 281 351 346 316 260 262 251 258 211 99 97 250 69 85
339 333 331 323 294 256 252 316 291 22 271 139 196 140 203 233 141 321 316 292 235 321 14 270 59 332 281 259 265 281 19 350 311 295 288 329 300 285 184 147 151 158 156 157 97
336 330 324 327 312 295 14 299 346 277 262 155 124 72 329 266 70 123 338 272 300 13 265 30 32 289 258 21 23 303 4 308 289 278 280 274 259 270 140 178 163 144 160 120 147
333 326 327 211 229 264 295 292 223 238 295 126 156 202 201 174 112 98 194 245 251 297 276 15 7 331 352 351 334 318 286 275 259 249 256 255 233 103 89 77 112 146 155 144 138
328 319 306 305 304 343 308 224 235 263 148 138 198 206 266 108 173 320 348 71 352 325 244 168 151 102 320 306 192 233 312 313 302 216 246 87 267 301 111 114 88 52 81 141 107
323 316 229 257 294 323 273 239 264 229 44 33 319 207 267 71 167 9 251 148 61 351 314 307 167 139 64 2 331 309 345 311 315 329 323 334 308 25 90 82 64 55 62 61 59
313 237 247 218 327 280 269 244 293 347 28 334 209 274 179 152 296 225 109 16 44 14 349 328 61 125 68 340 319 4 336 359 316 289 267 292 327 82 95 76 62 57 32 32 38
315 278 243 117 93 255 246 258 297 52 326 283 290 41 320 85 295 191 117 52 56 26 346 4 304 33 67 292 242 266 349 317 282 288 293 303 332 347 53 83 117 13 327 282 309
257 251 103 233 177 239 247 326 90 69 349 321 352 303 335 339 343 312 345 102 31 16 319 306 281 302 173 234 348 260 301 318 314 327 295 297 280 302 11 8 11 347 345 10 18
296 264 110 198 229 228 260 36 20 48 274 26 310 351 321 18 306 313 3 62 38 343 317 62 321 294 295 311 66 315 296 303 309 307 309 310 289 281 324 352 342 334 7 8 3
289 304 115 223 254 284 121 112 53 304 58 336 329 337 44 304 35 318 33 93 52 345 30 358 310 316 324 270 102 273 305 315 277 260 259 280 282 302 316 329 357 12 4 351 353
277 294 146 213 282 305 62 184 153 75 14 299 324 349 293 279 188 267 278 116 125 67 59 347 274 272 274 299 317 306 302 300 296 278 284 278 296 302 316 10 4 3 7 1 351
259 34 2 346 39 339 326 12 280 147 259 106 247 240 354 14 328 309 351 342 182 143 164 277 291 305 301 307 301 295 292 289 287 291 291 299 300 325 15 6 13 3 353 341 338
340 350 338 324 313 290 145 106 341 83 304 107 295 336 341 288 271 293 348 336 302 168 162 127 293 311 304 284 275 292 306 301 288 305 320 328 322 2 8 9 359 351 344 331 333
4 343 280 290 203 264 56 54 47 9 119 340 357 325 299 34 350 339 325 300 292 296 300 310 290 324 282 345 314 298 324 339 331 331 351 337 344 7 357 1 349 336 329 331 328